VIA003 TFFF-SVMI

Flight info

Callsign VIA003
Flight time 1h 10m
Altitude 36000
Route SOMON2R SOMON A551 ONGAL UA551 OPLUD A551 KOMPU NETSI1
Aircraft MD11/H-SDE1E2E3FGHIJ2J3J4J5M1RWXYZ/LB1D1

Departure

Time 2026-04-27 16:05
Airport Martinique Aimé Césaire International Airport (TFFF)

Arrival

Time 2026-04-27 17:15
Airport Maiquetía Simón Bolívar International Airport (SVMI)
Time Latitude Longitude Altitude Speed Heading
2026-04-27 15:54 14.59450 -61.00038 39 ft 0 kts 21°
2026-04-27 15:56 14.59444 -61.00040 39 ft 2 kts 21°
2026-04-27 15:57 14.59430 -61.00046 39 ft 2 kts 21°
2026-04-27 15:57 14.59421 -61.00050 39 ft 2 kts 20°
2026-04-27 15:57 14.59407 -61.00053 39 ft 2 kts 358°
2026-04-27 15:57 14.59392 -61.00051 39 ft 2 kts 339°
2026-04-27 15:58 14.59379 -61.00044 39 ft 2 kts 320°
2026-04-27 15:58 14.59369 -61.00032 39 ft 2 kts 301°
2026-04-27 15:58 14.59363 -61.00019 39 ft 1 kts 283°
2026-04-27 15:58 14.59362 -61.00014 39 ft 0 kts 281°
2026-04-27 16:00 14.59363 -61.00016 39 ft 1 kts 278°
2026-04-27 16:00 14.59344 -61.00049 39 ft 9 kts 229°
2026-04-27 16:01 14.59302 -61.00133 38 ft 16 kts 259°
2026-04-27 16:01 14.59284 -61.00257 38 ft 18 kts 259°
2026-04-27 16:01 14.59258 -61.00398 38 ft 21 kts 259°
2026-04-27 16:01 14.59233 -61.00555 38 ft 23 kts 261°
2026-04-27 16:02 14.59204 -61.00726 38 ft 25 kts 259°
2026-04-27 16:02 14.59171 -61.00912 38 ft 27 kts 260°
2026-04-27 16:02 14.59139 -61.01110 39 ft 28 kts 261°
2026-04-27 16:02 14.59113 -61.01269 39 ft 15 kts 261°
2026-04-27 16:03 14.59107 -61.01312 40 ft 0 kts 257°
2026-04-27 16:03 14.59104 -61.01323 40 ft 5 kts 255°
2026-04-27 16:03 14.59061 -61.01357 40 ft 10 kts 173°
2026-04-27 16:03 14.58986 -61.01348 40 ft 11 kts 173°
2026-04-27 16:04 14.58945 -61.01286 40 ft 14 kts 88°
2026-04-27 16:04 14.58988 -61.01031 39 ft 65 kts 81°
2026-04-27 16:04 14.59108 -61.00303 38 ft 139 kts 81°
2026-04-27 16:04 14.59298 -60.99149 258 ft 176 kts 82°
2026-04-27 16:05 14.59486 -60.97987 1182 ft 165 kts 81°
2026-04-27 16:05 14.59702 -60.96822 1816 ft 172 kts 81°
2026-04-27 16:05 14.59935 -60.95521 2179 ft 195 kts 82°
2026-04-27 16:05 14.60183 -60.94051 2478 ft 222 kts 82°
2026-04-27 16:06 14.60460 -60.92394 2920 ft 240 kts 82°
2026-04-27 16:06 14.60748 -60.90680 3682 ft 251 kts 84°
2026-04-27 16:06 14.60540 -60.88907 4665 ft 253 kts 112°
2026-04-27 16:06 14.59515 -60.87434 5519 ft 263 kts 140°
2026-04-27 16:07 14.57858 -60.86582 6369 ft 274 kts 166°
2026-04-27 16:07 14.55941 -60.86536 7249 ft 285 kts 189°
2026-04-27 16:07 14.54032 -60.87104 8203 ft 293 kts 196°
2026-04-27 16:07 14.52069 -60.87734 9237 ft 297 kts 194°
2026-04-27 16:08 14.50075 -60.88328 10274 ft 301 kts 194°
2026-04-27 16:08 14.48062 -60.89159 10736 ft 328 kts 210°
2026-04-27 16:08 14.46196 -60.90662 11076 ft 358 kts 226°
2026-04-27 16:08 14.44713 -60.92854 11415 ft 387 kts 243°
2026-04-27 16:09 14.43693 -60.95441 12236 ft 400 kts 250°
2026-04-27 16:09 14.41842 -61.00924 14262 ft 412 kts 249°
2026-04-27 16:09 14.40821 -61.03702 15268 ft 417 kts 248°
2026-04-27 16:10 14.38667 -61.09286 17263 ft 425 kts 247°
2026-04-27 16:10 14.36446 -61.14985 19022 ft 435 kts 246°
2026-04-27 16:11 14.35325 -61.17887 19848 ft 441 kts 247°
2026-04-27 16:11 14.33051 -61.23815 21466 ft 450 kts 246°
2026-04-27 16:12 14.30721 -61.29851 23024 ft 460 kts 246°
2026-04-27 16:12 14.29552 -61.32902 23806 ft 464 kts 246°
2026-04-27 16:12 14.27158 -61.39134 25305 ft 472 kts 246°
2026-04-27 16:13 14.25940 -61.42292 26017 ft 476 kts 247°
2026-04-27 16:13 14.23487 -61.48700 27435 ft 484 kts 247°
2026-04-27 16:13 14.22254 -61.51911 28119 ft 488 kts 247°
2026-04-27 16:14 14.19757 -61.58412 29809 ft 489 kts 248°
2026-04-27 16:14 14.17278 -61.64887 31612 ft 485 kts 247°
2026-04-27 16:15 14.14355 -61.71131 33302 ft 481 kts 239°
2026-04-27 16:15 14.10746 -61.76880 35110 ft 473 kts 235°
2026-04-27 16:16 14.07011 -61.82447 35814 ft 467 kts 235°
2026-04-27 16:16 14.03416 -61.87893 35977 ft 458 kts 236°
2026-04-27 16:17 13.99890 -61.93263 35992 ft 446 kts 236°
2026-04-27 16:17 13.96422 -61.98543 36012 ft 444 kts 236°
2026-04-27 16:18 13.89437 -62.09136 36013 ft 448 kts 236°
2026-04-27 16:19 13.85933 -62.14454 36015 ft 447 kts 236°
2026-04-27 16:20 13.78967 -62.25026 36019 ft 444 kts 236°
2026-04-27 16:21 13.73849 -62.32794 36019 ft 433 kts 236°
2026-04-27 16:22 13.67090 -62.43063 36016 ft 435 kts 236°
2026-04-27 16:22 13.61973 -62.50769 36001 ft 436 kts 236°
2026-04-27 16:23 13.56832 -62.58508 36002 ft 435 kts 236°
2026-04-27 16:24 13.53429 -62.63603 35995 ft 434 kts 236°
2026-04-27 16:25 13.46616 -62.73846 36000 ft 435 kts 236°
2026-04-27 16:26 13.39800 -62.84099 35999 ft 435 kts 236°
2026-04-27 16:27 13.32963 -62.94391 35994 ft 434 kts 236°
2026-04-27 16:28 13.24477 -63.07169 36001 ft 434 kts 236°
2026-04-27 16:29 13.15957 -63.19975 36004 ft 435 kts 235°
2026-04-27 16:30 13.09107 -63.30198 36004 ft 436 kts 235°
2026-04-27 16:31 13.00505 -63.43019 36006 ft 435 kts 235°
2026-04-27 16:32 12.95346 -63.50718 36009 ft 436 kts 235°
2026-04-27 16:33 12.90198 -63.58398 36005 ft 437 kts 236°
2026-04-27 16:33 12.86751 -63.63551 36010 ft 437 kts 235°
2026-04-27 16:34 12.83309 -63.68687 36012 ft 437 kts 235°
2026-04-27 16:34 12.79867 -63.73834 36006 ft 437 kts 235°
2026-04-27 16:35 12.76425 -63.78976 36010 ft 437 kts 235°
2026-04-27 16:36 12.71271 -63.86682 36006 ft 438 kts 235°
2026-04-27 16:36 12.67789 -63.91824 36003 ft 439 kts 235°
2026-04-27 16:37 12.64313 -63.96971 35999 ft 439 kts 235°
2026-04-27 16:37 12.60823 -64.02131 36005 ft 438 kts 235°
2026-04-27 16:38 12.57348 -64.07274 36000 ft 438 kts 235°
2026-04-27 16:38 12.53892 -64.12389 35990 ft 438 kts 235°
2026-04-27 16:39 12.50421 -64.17529 35990 ft 439 kts 235°
2026-04-27 16:39 12.46943 -64.22681 35985 ft 439 kts 235°
2026-04-27 16:40 12.43487 -64.27799 35984 ft 439 kts 235°
2026-04-27 16:40 12.40005 -64.32961 35989 ft 439 kts 235°
2026-04-27 16:41 12.36553 -64.38073 35980 ft 438 kts 235°
2026-04-27 16:41 12.33089 -64.43218 35983 ft 438 kts 235°
2026-04-27 16:42 12.30327 -64.47304 35981 ft 438 kts 235°
2026-04-27 16:42 12.27487 -64.51525 35985 ft 439 kts 235°
2026-04-27 16:43 12.24025 -64.56659 35981 ft 440 kts 235°
2026-04-27 16:43 12.20514 -64.61809 35986 ft 439 kts 235°
2026-04-27 16:44 12.17026 -64.66934 35984 ft 439 kts 235°
2026-04-27 16:44 12.13533 -64.72063 35980 ft 440 kts 234°
2026-04-27 16:45 12.10047 -64.77183 35975 ft 439 kts 235°
2026-04-27 16:45 12.06575 -64.82285 35977 ft 439 kts 235°
2026-04-27 16:46 12.03080 -64.87421 35975 ft 439 kts 235°
2026-04-27 16:46 11.99607 -64.92531 35980 ft 439 kts 235°
2026-04-27 16:47 11.96107 -64.97674 35952 ft 437 kts 235°
2026-04-27 16:47 11.94391 -65.00207 35282 ft 439 kts 235°
2026-04-27 16:47 11.92638 -65.02785 34360 ft 441 kts 234°
2026-04-27 16:47 11.90875 -65.05363 33399 ft 445 kts 234°
2026-04-27 16:48 11.89116 -65.07948 32410 ft 451 kts 234°
2026-04-27 16:48 11.87313 -65.10603 31508 ft 454 kts 234°
2026-04-27 16:48 11.85517 -65.13254 30655 ft 457 kts 234°
2026-04-27 16:49 11.81896 -65.18576 29079 ft 459 kts 234°
2026-04-27 16:49 11.80068 -65.21262 28260 ft 461 kts 234°
2026-04-27 16:49 11.78261 -65.23933 27621 ft 458 kts 234°
2026-04-27 16:49 11.76446 -65.26612 26849 ft 460 kts 234°
2026-04-27 16:50 11.74588 -65.29330 25277 ft 476 kts 233°
2026-04-27 16:50 11.72703 -65.32062 24922 ft 463 kts 233°
2026-04-27 16:50 11.70881 -65.34722 24434 ft 457 kts 233°
2026-04-27 16:50 11.69073 -65.37377 23864 ft 452 kts 233°
2026-04-27 16:51 11.67288 -65.39988 23299 ft 447 kts 233°
2026-04-27 16:51 11.65513 -65.42567 22741 ft 442 kts 233°
2026-04-27 16:51 11.63761 -65.45121 22147 ft 439 kts 233°
2026-04-27 16:51 11.62032 -65.47654 21572 ft 435 kts 233°
2026-04-27 16:52 11.60317 -65.50166 21101 ft 427 kts 233°
2026-04-27 16:52 11.58637 -65.52620 20966 ft 413 kts 233°
2026-04-27 16:52 11.57000 -65.55010 20614 ft 405 kts 233°
2026-04-27 16:52 11.55408 -65.57339 20145 ft 401 kts 233°
2026-04-27 16:53 11.53806 -65.59679 19569 ft 400 kts 233°
2026-04-27 16:53 11.52224 -65.61990 18982 ft 400 kts 233°
2026-04-27 16:53 11.50647 -65.64297 18380 ft 400 kts 233°
2026-04-27 16:53 11.49053 -65.66629 17764 ft 400 kts 233°
2026-04-27 16:54 11.47467 -65.68943 17151 ft 400 kts 232°
2026-04-27 16:54 11.45869 -65.71278 16541 ft 400 kts 232°
2026-04-27 16:54 11.44288 -65.73592 15950 ft 400 kts 232°
2026-04-27 16:54 11.42699 -65.75917 15370 ft 399 kts 232°
2026-04-27 16:55 11.41106 -65.78248 14822 ft 397 kts 232°
2026-04-27 16:55 11.39547 -65.80526 14699 ft 387 kts 232°
2026-04-27 16:55 11.38048 -65.82789 14531 ft 383 kts 234°
2026-04-27 16:55 11.36655 -65.85100 14257 ft 379 kts 236°
2026-04-27 16:56 11.35363 -65.87420 13988 ft 374 kts 237°
2026-04-27 16:56 11.34121 -65.89705 13745 ft 372 kts 237°
2026-04-27 16:56 11.32856 -65.92014 13481 ft 364 kts 237°
2026-04-27 16:56 11.31622 -65.94235 13253 ft 356 kts 237°
2026-04-27 16:57 11.30422 -65.96387 13049 ft 347 kts 236°
2026-04-27 16:57 11.29240 -65.98505 12861 ft 338 kts 236°
2026-04-27 16:57 11.28097 -66.00552 12688 ft 329 kts 236°
2026-04-27 16:57 11.26972 -66.02573 12528 ft 320 kts 236°
2026-04-27 16:58 11.25895 -66.04512 12392 ft 313 kts 236°
2026-04-27 16:58 11.24838 -66.06419 12255 ft 306 kts 236°
2026-04-27 16:58 11.23786 -66.08315 12020 ft 303 kts 236°
2026-04-27 16:58 11.22755 -66.10172 11727 ft 300 kts 236°
2026-04-27 16:59 11.21745 -66.11993 11428 ft 298 kts 236°
2026-04-27 16:59 11.20717 -66.13847 11106 ft 297 kts 236°
2026-04-27 16:59 11.19712 -66.15661 10785 ft 296 kts 236°
2026-04-27 16:59 11.18698 -66.17484 10464 ft 295 kts 236°
2026-04-27 17:00 11.17016 -66.20514 9917 ft 294 kts 236°
2026-04-27 17:00 11.15687 -66.22916 9486 ft 293 kts 237°
2026-04-27 17:00 11.14673 -66.24742 9173 ft 292 kts 237°
2026-04-27 17:01 11.13679 -66.26533 8866 ft 291 kts 237°
2026-04-27 17:01 11.12691 -66.28320 8567 ft 291 kts 237°
2026-04-27 17:01 11.11691 -66.30125 8266 ft 290 kts 237°
2026-04-27 17:01 11.10700 -66.31911 7983 ft 288 kts 237°
2026-04-27 17:02 11.09717 -66.33682 7700 ft 287 kts 238°
2026-04-27 17:02 11.08732 -66.35456 7417 ft 286 kts 238°
2026-04-27 17:02 11.07768 -66.37201 7132 ft 285 kts 238°
2026-04-27 17:02 11.06787 -66.38973 6846 ft 285 kts 238°
2026-04-27 17:03 11.05821 -66.40716 6578 ft 283 kts 238°
2026-04-27 17:03 11.04856 -66.42453 6320 ft 282 kts 238°
2026-04-27 17:03 11.03884 -66.44210 6057 ft 280 kts 238°
2026-04-27 17:03 11.02933 -66.45932 5806 ft 279 kts 238°
2026-04-27 17:04 11.01984 -66.47649 5548 ft 277 kts 238°
2026-04-27 17:04 11.01031 -66.49365 5299 ft 276 kts 238°
2026-04-27 17:04 11.00088 -66.51060 5044 ft 275 kts 238°
2026-04-27 17:04 10.99162 -66.52734 4787 ft 274 kts 238°
2026-04-27 17:05 10.98222 -66.54439 4519 ft 273 kts 238°
2026-04-27 17:05 10.97268 -66.56104 4256 ft 271 kts 232°
2026-04-27 17:05 10.96066 -66.57536 3998 ft 266 kts 219°
2026-04-27 17:05 10.94627 -66.58735 3757 ft 264 kts 213°
2026-04-27 17:06 10.93131 -66.59800 3515 ft 262 kts 211°
2026-04-27 17:06 10.91615 -66.60849 3270 ft 262 kts 212°
2026-04-27 17:06 10.90127 -66.61913 3129 ft 260 kts 213°
2026-04-27 17:06 10.88650 -66.63017 3142 ft 262 kts 214°
2026-04-27 17:07 10.87200 -66.64127 3140 ft 261 kts 214°
2026-04-27 17:07 10.85737 -66.65263 3142 ft 261 kts 214°
2026-04-27 17:07 10.84301 -66.66378 3139 ft 260 kts 214°
2026-04-27 17:07 10.82862 -66.67491 3142 ft 259 kts 214°
2026-04-27 17:08 10.81410 -66.68609 3143 ft 260 kts 214°
2026-04-27 17:08 10.79962 -66.69718 3134 ft 261 kts 214°
2026-04-27 17:08 10.78500 -66.70837 3126 ft 262 kts 214°
2026-04-27 17:08 10.77035 -66.71957 3126 ft 260 kts 214°
2026-04-27 17:09 10.75626 -66.73040 3112 ft 244 kts 214°
2026-04-27 17:09 10.74314 -66.74049 3107 ft 228 kts 214°
2026-04-27 17:09 10.73080 -66.74992 3143 ft 214 kts 213°
2026-04-27 17:09 10.71891 -66.75899 3116 ft 209 kts 213°
2026-04-27 17:10 10.70732 -66.76779 3127 ft 204 kts 213°
2026-04-27 17:10 10.69585 -66.77657 3144 ft 206 kts 213°
2026-04-27 17:10 10.68446 -66.78530 3172 ft 206 kts 213°
2026-04-27 17:10 10.67287 -66.79421 3178 ft 206 kts 213°
2026-04-27 17:11 10.66178 -66.80338 3161 ft 207 kts 223°
2026-04-27 17:11 10.64785 -66.82828 2701 ft 197 kts 248°
2026-04-27 17:11 10.64362 -66.84106 2519 ft 187 kts 250°
2026-04-27 17:12 10.63548 -66.86536 2337 ft 182 kts 247°
2026-04-27 17:12 10.63077 -66.87746 2064 ft 188 kts 246°
2026-04-27 17:12 10.62582 -66.88991 1787 ft 189 kts 246°
2026-04-27 17:13 10.62098 -66.90183 1592 ft 177 kts 247°
2026-04-27 17:13 10.61630 -66.91354 1424 ft 177 kts 248°
2026-04-27 17:13 10.61194 -66.92530 1281 ft 177 kts 251°
2026-04-27 17:13 10.60822 -66.93694 1108 ft 173 kts 255°
2026-04-27 17:14 10.60523 -66.94875 865 ft 169 kts 259°
2026-04-27 17:14 10.60353 -66.96040 648 ft 166 kts 270°
2026-04-27 17:14 10.60324 -66.97201 454 ft 163 kts 272°
2026-04-27 17:14 10.60302 -66.98344 303 ft 160 kts 269°
2026-04-27 17:15 10.60268 -66.99472 309 ft 149 kts 267°
2026-04-27 17:15 10.60246 -67.00169 331 ft 41 kts 269°
2026-04-27 17:15 10.60240 -67.00275 333 ft 5 kts 249°
2026-04-27 17:15 10.60208 -67.00300 334 ft 6 kts 194°
2026-04-27 17:16 10.60156 -67.00304 335 ft 7 kts 182°
2026-04-27 17:16 10.60096 -67.00304 336 ft 9 kts 180°
2026-04-27 17:16 10.60027 -67.00306 337 ft 9 kts 191°
2026-04-27 17:16 10.60001 -67.00365 338 ft 10 kts 266°
2026-04-27 17:17 10.59997 -67.00449 338 ft 13 kts 268°
2026-04-27 17:17 10.59994 -67.00552 337 ft 15 kts 268°
2026-04-27 17:17 10.59990 -67.00664 335 ft 12 kts 257°
2026-04-27 17:18 10.59866 -67.00684 336 ft 6 kts 178°
2026-04-27 17:18 10.59833 -67.00682 337 ft 2 kts 178°
2026-04-27 17:18 10.59829 -67.00682 337 ft 0 kts 178°
2026-04-27 17:18 10.59827 -67.00682 337 ft 0 kts 178°